User: anonymous   Login
Location: Adaghas
(31.2259°N, 9.0496°W)
Time: 05:39:15
(UTC+00:00)
Language:

YAOGAN 1 - Orbit

View from above orbital plane
View from above orbital plane
View from above satellite
View from above satellite

Ground track
Ground track

The orbit data is extracted from the following two-line orbital elements,

1 29092U 06015A   20333.60180251 +.00000166 +00000-0 +26904-4 0  9996
2 29092 097.9280 356.7971 0001397 089.7604 270.3770 14.83106503789068
Epoch (UTC): 28 November 2020 14:26:35
Eccentricity: 0.0001397
inclination: 97.9280°
perigee height: 618 km
apogee height: 620 km
right ascension of ascending node: 356.7971°
argument of perigee: 89.7604°
revolutions per day: 14.83106503
mean anomaly at epoch: 270.3770°
orbit number at epoch: 78906

The dashed part of the orbit path shows where the satellite is in the earth's shadow,  

DLR